Location: Bear Trap Landing
(45.2437°N, 67.7928°W)
Time: 03:09:34
(UTC+00:00)

N. Korean satellite - Visible Passes

Search period start: 26 February 2021 00:00
Search period end: 08 March 2021 00:00
Orbit: 451 x 503 km, 97.2° (Epoch: 25 February)

Date Brightness Start Highest point End Pass type
(mag) Time Alt. Az. Time Alt. Az. Time Alt. Az.
26 Feb 9.1 09:16:03 10° NE 09:18:50 22° E 09:21:38 10° SSE visible
27 Feb 10.0 08:50:58 10° ENE 08:51:54 11° E 08:52:51 10° ESE visible
27 Feb 6.7 10:22:06 10° N 10:25:30 50° WNW 10:28:56 10° SSW visible
28 Feb 6.8 09:55:18 10° NNE 09:58:48 71° ESE 10:02:20 10° S visible
01 Mar 8.5 09:28:49 10° NNE 09:32:00 31° E 09:35:13 10° SSE visible
02 Mar 9.7 09:02:53 10° NE 09:05:06 16° E 09:07:20 10° SE visible
02 Mar 7.2 10:35:18 10° N 10:38:31 35° WNW 10:41:47 10° SW visible
03 Mar 6.4 10:08:19 10° N 10:11:51 77° WNW 10:15:25 10° SSW visible
04 Mar 7.7 09:41:38 10° NNE 09:45:05 46° E 09:48:33 10° S visible
05 Mar 9.2 09:15:21 10° NE 09:18:13 22° E 09:21:04 10° SSE visible
06 Mar 10.0 08:50:09 10° ENE 08:51:14 11° E 08:52:19 10° ESE visible
06 Mar 6.7 10:21:21 10° N 10:24:49 51° WNW 10:28:19 10° SSW visible
07 Mar 6.9 09:54:30 10° NNE 09:58:04 70° ESE 10:01:41 10° S visible
